DW7898 Weather Reports


time (UTC)temp
C
wind
direction
speed
KPH
gust
KPH
rain 1hr
cm
rain 24hr
cm
rain mn
cm
humidity
%
barometer
mb
20260906134347 31 127 11.3 20.9 0.00 0.00 0.00 42 1021.9
20260906133348 32 119 6.4 19.3 0.00 0.00 0.00 42 1022.0
20260906132357 32 135 11.3 19.3 0.00 0.00 0.00 41 1021.9
20260906131357 32 171 6.4 17.7 0.00 0.00 0.00 40 1022.0
20260906130349 32 108 12.9 20.9 0.00 0.00 0.00 39 1022.1
20260906125403 32 159 8.0 22.5 0.00 0.00 0.00 38 1022.0
20260906124350 32 166 6.4 17.7 0.00 0.00 0.00 38 1022.0
20260906123347 32 118 9.7 19.3 0.00 0.00 0.00 41 1022.2
20260906122352 32 127 8.0 22.5 0.00 0.00 0.00 41 1022.2
20260906121342 32 135 6.4 19.3 0.00 0.00 0.00 40 1022.3
20260906120402 32 119 14.5 22.5 0.00 0.00 0.00 39 1022.2
20260906115352 32 84 11.3 19.3 0.00 0.00 0.00 38 1022.2
20260906114403 33 115 8.0 16.1 0.00 0.00 0.00 36 1022.4
20260906113402 33 104 8.0 14.5 0.00 0.00 0.00 34 1022.2
20260906112340 33 159 3.2 14.5 0.00 0.00 0.00 34 1022.3
20260906111355 32 188 4.8 12.9 0.00 0.00 0.00 35 1022.3
20260906110349 32 134 9.7 16.1 0.00 0.00 0.00 35 1022.4
20260906105359 33 171 4.8 14.5 0.00 0.00 0.00 36 1022.6
20260906104357 33 107 6.4 16.1 0.00 0.00 0.00 35 1022.6
20260906103353 33 203 4.8 9.7 0.00 0.00 0.00 35 1022.6
20260906102347 32 130 4.8 11.3 0.00 0.00 0.00 37 1022.6
20260906101349 32 120 4.8 8.0 0.00 0.00 0.00 38 1022.6
20260906100349 32 277 3.2 8.0 0.00 0.00 0.00 38 1022.7
20260906095345 31 314 1.6 6.4 0.00 0.00 0.00 38 1022.7
20260906094400 31 316 0.0 8.0 0.00 0.00 0.00 40 1022.8
20260906093400 31 276 4.8 6.4 0.00 0.00 0.00 41 1022.9
20260906092346 30 277 1.6 8.0 0.00 0.00 0.00 43 1022.9
20260906091348 30 288 0.0 4.8 0.00 0.00 0.00 45 1022.8
20260906090346 30 287 0.0 1.6 0.00 0.00 0.00 46 1022.8
20260906085355 28 287 1.6 3.2 0.00 0.00 0.00 48 1022.8
20260906084354 27 287 0.0 4.8 0.00 0.00 0.00 51 1022.7
20260906083351 27 190 0.0 0.0 0.00 0.00 0.00 52 1022.6
20260906082343 27 95 0.0 0.0 0.00 0.00 0.00 53 1022.6
20260906081356 26 94 0.0 0.0 0.00 0.00 0.00 55 1022.5
20260906080354 26 95 0.0 0.0 0.00 0.00 0.00 57 1022.4
20260906075343 25 94 0.0 0.0 0.00 0.00 0.00 59 1022.5
20260906074342 25 94 0.0 0.0 0.00 0.00 0.00 61 1022.4
20260906073348 25 94 0.0 0.0 0.00 0.00 0.00 62 1022.3
20260906072345 25 97 0.0 0.0 0.00 0.00 0.00 64 1022.3
20260906071344 24 97 0.0 0.0 0.00 0.00 0.00 65 1022.3
20260906070345 23 97 0.0 0.0 0.00 0.00 0.00 67 1022.3
20260906065402 22 97 0.0 0.0 0.00 0.00 0.00 68 1022.1
20260906064359 22 97 0.0 0.0 0.00 0.00 0.00 69 1022.1
20260906063357 22 97 0.0 0.0 0.00 0.00 0.00 70 1022.1
20260906061357 22 100 0.0 0.0 0.00 0.00 0.00 71 1022.0
20260906060357 22 100 0.0 0.0 0.00 0.00 0.00 70 1021.8
20260906055356 21 100 0.0 4.8 0.00 0.00 0.00 71 1021.8
20260906054357 21 101 0.0 3.2 0.00 0.00 0.00 71 1021.6
20260906053352 21 102 1.6 6.4 0.00 0.00 0.00 70 1021.6
20260906052346 22 110 3.2 6.4 0.00 0.00 0.00 70 1021.5
20260906051344 21 118 0.0 3.2 0.00 0.00 0.00 69 1021.4
20260906050343 22 118 0.0 4.8 0.00 0.00 0.00 69 1021.4
20260906045341 22 119 3.2 4.8 0.00 0.00 0.00 68 1021.3
20260906044402 22 121 1.6 4.8 0.00 0.00 0.00 67 1021.3
20260906043403 22 121 0.0 0.0 0.00 0.00 0.00 67 1021.4
20260906042359 22 121 0.0 0.0 0.00 0.00 0.00 66 1021.5
20260906041400 22 121 0.0 0.0 0.00 0.00 0.00 66 1021.4
20260906040401 22 121 0.0 0.0 0.00 0.00 0.00 66 1021.5
20260906035353 22 121 0.0 0.0 0.00 0.00 0.00 66 1021.5
20260906034348 22 121 0.0 0.0 0.00 0.00 0.00 66 1021.6
20260906033344 22 121 0.0 3.2 0.00 0.00 0.00 65 1021.6
20260906032343 22 121 1.6 3.2 0.00 0.00 0.00 65 1021.7
20260906031344 23 121 0.0 0.0 0.00 0.00 0.00 66 1021.8
20260906030347 23 121 0.0 0.0 0.00 0.00 0.00 65 1021.7
20260906025345 23 121 0.0 0.0 0.00 0.00 0.00 64 1021.8
20260906024345 23 121 0.0 0.0 0.00 0.00 0.00 64 1021.8
20260906023344 23 121 0.0 0.0 0.00 0.00 0.00 64 1021.8
20260906022400 23 121 0.0 0.0 0.00 0.00 0.00 62 1021.8
20260906021358 23 121 0.0 0.0 0.00 0.00 0.00 62 1021.9
20260906020341 23 121 0.0 0.0 0.00 0.00 0.00 62 1021.9
20260906015359 23 121 0.0 0.0 0.00 0.00 0.00 61 1022.1
20260906014342 23 121 0.0 0.0 0.00 0.00 0.00 61 1022.0
20260906013345 24 121 0.0 1.6 0.00 0.00 0.00 62 1022.1
20260906012359 24 121 0.0 3.2 0.00 0.00 0.00 61 1022.3
20260906011356 24 121 0.0 3.2 0.00 0.00 0.00 61 1022.2
20260906010357 24 121 0.0 1.6 0.00 0.00 0.00 61 1022.3
20260906005347 24 121 0.0 1.6 0.00 0.00 0.00 61 1022.3
20260906004350 24 121 1.6 3.2 0.00 0.00 0.00 62 1022.3
20260906003350 25 121 0.0 0.0 0.00 0.00 0.00 64 1022.4
20260906002343 25 121 0.0 0.0 0.00 0.00 0.00 65 1022.6
20260906001346 25 121 0.0 0.0 0.00 0.00 0.00 64 1022.7
20260906000348 25 121 0.0 0.0 0.00 0.00 0.00 64 1022.6
20260905235348 25 121 0.0 0.0 0.00 0.00 0.00 63 1022.6
20260905234347 25 121 0.0 3.2 0.00 0.00 0.00 62 1022.8
20260905233344 25 121 0.0 3.2 0.00 0.00 0.00 63 1022.8
20260905232358 25 121 0.0 3.2 0.00 0.00 0.00 65 1022.9
20260905231352 25 121 0.0 3.2 0.00 0.00 0.00 64 1023.1
20260905230353 26 121 0.0 1.6 0.00 0.00 0.00 63 1023.1
20260905225348 26 121 0.0 0.0 0.00 0.00 0.00 62 1023.1
20260905224343 26 121 1.6 3.2 0.00 0.00 0.00 61 1023.1
20260905223343 26 121 0.0 1.6 0.00 0.00 0.00 60 1023.2
20260905222355 26 121 0.0 3.2 0.00 0.00 0.00 60 1023.2
20260905221355 26 121 0.0 3.2 0.00 0.00 0.00 60 1023.0
20260905220357 26 121 0.0 1.6 0.00 0.00 0.00 60 1023.1
20260905215349 26 121 0.0 3.2 0.00 0.00 0.00 60 1023.2
20260905214348 26 121 1.6 6.4 0.00 0.00 0.00 60 1023.2
20260905213350 26 121 4.8 6.4 0.00 0.00 0.00 59 1023.2
20260905212342 27 121 1.6 4.8 0.00 0.00 0.00 58 1023.2
20260905211342 27 121 3.2 6.4 0.00 0.00 0.00 57 1023.3
20260905210345 27 121 1.6 4.8 0.00 0.00 0.00 56 1023.4
20260905205402 27 121 3.2 6.4 0.00 0.00 0.00 55 1023.4
20260905204358 27 121 3.2 4.8 0.00 0.00 0.00 53 1023.4
20260905203353 27 121 3.2 4.8 0.00 0.00 0.00 53 1023.4
20260905202402 27 121 3.2 4.8 0.00 0.00 0.00 52 1023.5
20260905201356 28 121 0.0 0.0 0.00 0.00 0.00 52 1023.5
20260905200353 28 121 0.0 3.2 0.00 0.00 0.00 51 1023.4
20260905195358 28 121 0.0 6.4 0.00 0.00 0.00 49 1023.2
20260905194351 28 117 0.0 3.2 0.00 0.00 0.00 50 1023.3
20260905193344 28 117 1.6 6.4 0.00 0.00 0.00 51 1023.3
20260905192350 28 117 4.8 6.4 0.00 0.00 0.00 52 1023.3
20260905191351 28 118 0.0 3.2 0.00 0.00 0.00 59 1023.2
20260905190348 29 118 0.0 3.2 0.00 0.00 0.00 59 1023.2
20260905185354 29 118 0.0 1.6 0.00 0.00 0.00 58 1023.2
20260905184345 29 118 1.6 3.2 0.00 0.00 0.00 59 1023.1
20260905183403 29 118 4.8 6.4 0.00 0.00 0.00 59 1023.1
20260905182350 29 116 1.6 6.4 0.00 0.00 0.00 59 1023.0
20260905181402 29 115 3.2 8.0 0.00 0.00 0.00 58 1022.9
20260905180357 30 132 4.8 9.7 0.00 0.00 0.00 57 1022.8
20260905175351 30 137 4.8 9.7 0.00 0.00 0.00 54 1023.0
20260905174344 30 134 4.8 9.7 0.00 0.00 0.00 51 1022.9
20260905173401 30 154 4.8 9.7 0.00 0.00 0.00 51 1023.0
20260905172355 30 139 6.4 12.9 0.00 0.00 0.00 50 1022.9
20260905171346 30 123 8.0 14.5 0.00 0.00 0.00 49 1022.8
20260905165344 31 124 6.4 14.5 0.00 0.00 0.00 45 1022.8
20260905164355 31 130 8.0 17.7 0.00 0.00 0.00 41 1022.8
20260905163350 31 199 6.4 19.3 0.00 0.00 0.00 36 1022.8
20260905162347 32 111 8.0 16.1 0.00 0.00 0.00 35 1022.7
20260905161357 32 88 6.4 17.7 0.00 0.00 0.00 34 1022.8
20260905160348 32 135 3.2 16.1 0.00 0.00 0.00 36 1022.8
20260905155353 32 137 8.0 17.7 0.00 0.00 0.00 34 1022.7
20260905154402 31 124 11.3 19.3 0.00 0.00 0.00 34 1022.7
20260905153351 32 85 8.0 17.7 0.00 0.00 0.00 35 1022.8
20260905152343 32 108 8.0 22.5 0.00 0.00 0.00 33 1022.8
20260905151400 32 154 6.4 22.5 0.00 0.00 0.00 34 1023.0
20260905150348 32 221 3.2 17.7 0.00 0.00 0.00 35 1023.0
20260905145404 33 106 9.7 17.7 0.00 0.00 0.00 35 1023.0
20260905144352 32 117 3.2 17.7 0.00 0.00 0.00 36 1023.0
20260905143349 33 131 8.0 16.1 0.00 0.00 0.00 34 1023.2
20260905142402 33 88 8.0 20.9 0.00 0.00 0.00 33 1023.2
20260905141358 33 72 4.8 19.3 0.00 0.00 0.00 32 1023.1
20260905140359 33 147 8.0 19.3 0.00 0.00 0.00 32 1023.1
20260905135348 33 144 8.0 19.3 0.00 0.00 0.00 32 1023.0